• In Czech Republic
  • List of Countries
  • For 7 days
  • Water Temperature
  • Satellite Maps
  • Weather Map
  • Weather Widgets
  • user-avatar
    Login

    Hourly Weather Erd

    Today, 24 October, Wednesday

    Time Temperature Precipitation Wind Pressure Humidity
    00:00 +12°C° 0 mm 8 mps 748 mmHg 57%
    01:00 +12°C° 0 mm 8 mps 747 mmHg 59%
    02:00 +12°C° 0.1 mm 8 mps 746 mmHg 60%
    03:00 +11°C° 0.1 mm 9 mps 746 mmHg 62%
    04:00 +11°C° 0.1 mm 9 mps 745 mmHg 63%
    05:00 +12°C° 0.1 mm 9 mps 744 mmHg 63%
    06:00 +12°C° 0.1 mm 9 mps 744 mmHg 62%
    07:00 +12°C° 0.1 mm 10 mps 744 mmHg 62%
    08:00 +12°C° 0.9 mm 9 mps 744 mmHg 64%
    09:00 +11°C° 0.9 mm 9 mps 744 mmHg 67%
    10:00 +11°C° 0.9 mm 8 mps 744 mmHg 69%
    11:00 +11°C° 0.4 mm 8 mps 745 mmHg 64%
    12:00 +11°C° 0.4 mm 8 mps 745 mmHg 59%
    13:00 +10°C° 0.4 mm 8 mps 746 mmHg 54%
    14:00 +10°C° 0 mm 8 mps 746 mmHg 51%
    15:00 +10°C° 0 mm 8 mps 746 mmHg 47%
    16:00 +10°C° 0 mm 7 mps 747 mmHg 44%
    17:00 +9°C° 0 mm 7 mps 748 mmHg 47%
    18:00 +8°C° 0 mm 6 mps 749 mmHg 50%
    19:00 +7°C° 0 mm 6 mps 750 mmHg 53%
    20:00 +7°C° 0 mm 6 mps 750 mmHg 55%
    21:00 +7°C° 0 mm 6 mps 751 mmHg 56%
    22:00 +5°C° 0 mm 6 mps 752 mmHg 57%
    23:00 +6°C° 0 mm 5 mps 752 mmHg 59%

    Tomorrow, 25 October, Thursday

    Time Temperature Precipitation Wind Pressure Humidity
    00:00 +6°C° 0 mm 5 mps 752 mmHg 60%
    01:00 +5°C° 0 mm 5 mps 752 mmHg 62%
    02:00 +5°C° 0 mm 4 mps 752 mmHg 64%
    03:00 +5°C° 0 mm 4 mps 752 mmHg 67%
    04:00 +4°C° 0 mm 3 mps 752 mmHg 69%
    05:00 +4°C° 0 mm 3 mps 752 mmHg 70%
    06:00 +4°C° 0 mm 3 mps 752 mmHg 72%
    07:00 +4°C° 0 mm 3 mps 753 mmHg 74%
    08:00 +5°C° 0.1 mm 4 mps 752 mmHg 74%
    09:00 +6°C° 0.1 mm 5 mps 752 mmHg 75%
    10:00 +7°C° 0.1 mm 5 mps 752 mmHg 76%
    11:00 +8°C° 0.1 mm 6 mps 752 mmHg 75%
    12:00 +9°C° 0.1 mm 6 mps 751 mmHg 74%
    13:00 +10°C° 0.1 mm 6 mps 750 mmHg 73%
    14:00 +11°C° 0.1 mm 6 mps 750 mmHg 70%
    15:00 +13°C° 0.1 mm 6 mps 750 mmHg 68%
    16:00 +14°C° 0.1 mm 6 mps 749 mmHg 65%
    17:00 +14°C° 0 mm 5 mps 749 mmHg 67%
    18:00 +13°C° 0 mm 5 mps 749 mmHg 70%
    19:00 +13°C° 0 mm 5 mps 750 mmHg 72%
    20:00 +12°C° 0 mm 5 mps 750 mmHg 73%
    21:00 +12°C° 0 mm 5 mps 750 mmHg 75%
    22:00 +11°C° 0 mm 4 mps 750 mmHg 77%
    23:00 +11°C° 0 mm 4 mps 750 mmHg 77%

    Day after tomorrow, 26 October, Friday

    Time Temperature Precipitation Wind Pressure Humidity
    00:00 +11°C° 0 mm 4 mps 750 mmHg 78%
    01:00 +10°C° 0 mm 4 mps 750 mmHg 79%
    02:00 +10°C° 0 mm 3 mps 750 mmHg 80%
    03:00 +10°C° 0 mm 3 mps 750 mmHg 82%
    04:00 +9°C° 0 mm 3 mps 750 mmHg 83%
    05:00 +9°C° 0 mm 2 mps 750 mmHg 84%
    06:00 +9°C° 0 mm 2 mps 750 mmHg 84%
    07:00 +9°C° 0 mm 2 mps 750 mmHg 85%
    08:00 +12°C° 0 mm 2 mps 750 mmHg 77%
    09:00 +13°C° 0 mm 2 mps 750 mmHg 70%
    10:00 +15°C° 0 mm 2 mps 750 mmHg 63%
    11:00 +14°C° 0 mm 3 mps 750 mmHg 61%
    12:00 +16°C° 0 mm 3 mps 749 mmHg 59%
    13:00 +16°C° 0 mm 3 mps 749 mmHg 57%
    14:00 +16°C° 0 mm 3 mps 748 mmHg 58%
    15:00 +16°C° 0 mm 3 mps 748 mmHg 59%
    16:00 +16°C° 0 mm 3 mps 747 mmHg 60%
    17:00 +14°C° 0 mm 3 mps 747 mmHg 65%
    18:00 +13°C° 0 mm 3 mps 747 mmHg 69%
    19:00 +12°C° 0 mm 3 mps 747 mmHg 73%
    20:00 +12°C° 0 mm 3 mps 747 mmHg 75%
    21:00 +12°C° 0 mm 3 mps 747 mmHg 77%
    22:00 +12°C° 0 mm 3 mps 746 mmHg 78%
    23:00 +13°C° 0.2 mm 2 mps 746 mmHg 81%

    27 October, Saturday

    Time Temperature Precipitation Wind Pressure Humidity
    00:00 +12°C° 0.2 mm 2 mps 746 mmHg 84%
    01:00 +12°C° 0.2 mm 2 mps 746 mmHg 87%
    02:00 +13°C° 0.1 mm 2 mps 746 mmHg 86%
    03:00 +13°C° 0.1 mm 2 mps 746 mmHg 86%
    04:00 +13°C° 0.1 mm 2 mps 746 mmHg 85%
    05:00 +13°C° 0.1 mm 2 mps 746 mmHg 81%
    06:00 +11°C° 0.1 mm 3 mps 747 mmHg 76%
    07:00 +11°C° 0.1 mm 3 mps 747 mmHg 72%
    08:00 +11°C° 0.2 mm 3 mps 747 mmHg 71%
    09:00 +10°C° 0.2 mm 2 mps 748 mmHg 70%
    10:00 +10°C° 0.2 mm 2 mps 748 mmHg 70%
    11:00 +10°C° 0.4 mm 2 mps 748 mmHg 71%
    12:00 +10°C° 0.4 mm 3 mps 748 mmHg 73%
    13:00 +9°C° 0.4 mm 3 mps 748 mmHg 74%
    14:00 +9°C° 0.2 mm 3 mps 748 mmHg 74%
    15:00 +9°C° 0.2 mm 3 mps 747 mmHg 73%
    16:00 +8°C° 0.2 mm 4 mps 747 mmHg 73%
    17:00 +8°C° 0.2 mm 3 mps 747 mmHg 73%
    18:00 +8°C° 0.2 mm 3 mps 747 mmHg 73%
    19:00 +8°C° 0.2 mm 3 mps 747 mmHg 74%
    20:00 +8°C° 0.2 mm 3 mps 747 mmHg 75%
    21:00 +8°C° 0.2 mm 2 mps 747 mmHg 77%
    22:00 +8°C° 0.2 mm 2 mps 747 mmHg 78%
    23:00 +8°C° 0.2 mm 2 mps 747 mmHg 80%

    28 October, Sunday

    Time Temperature Precipitation Wind Pressure Humidity
    00:00 +8°C° 0.2 mm 2 mps 747 mmHg 82%
    01:00 +8°C° 0.2 mm 2 mps 747 mmHg 84%
    02:00 +9°C° 0.1 mm 2 mps 747 mmHg 85%
    03:00 +9°C° 0.1 mm 3 mps 747 mmHg 86%
    04:00 +9°C° 0.1 mm 3 mps 747 mmHg 87%
    05:00 +9°C° 0.1 mm 3 mps 747 mmHg 87%
    06:00 +8°C° 0.1 mm 4 mps 746 mmHg 87%
    07:00 +8°C° 0.1 mm 4 mps 746 mmHg 87%
    08:00 +8°C° 0.4 mm 4 mps 746 mmHg 86%
    09:00 +10°C° 0.4 mm 4 mps 746 mmHg 84%
    10:00 +10°C° 0.4 mm 4 mps 746 mmHg 83%
    11:00 +11°C° 0.8 mm 4 mps 746 mmHg 82%
    12:00 +12°C° 0.8 mm 3 mps 745 mmHg 80%
    13:00 +13°C° 0.8 mm 3 mps 745 mmHg 78%
    14:00 +13°C° 0.3 mm 3 mps 745 mmHg 78%
    15:00 +14°C° 0.3 mm 3 mps 744 mmHg 77%
    16:00 +14°C° 0.3 mm 3 mps 744 mmHg 77%
    17:00 +14°C° 0.2 mm 3 mps 744 mmHg 75%
    18:00 +14°C° 0.2 mm 3 mps 744 mmHg 74%
    19:00 +14°C° 0.2 mm 3 mps 744 mmHg 73%
    20:00 +14°C° 0 mm 3 mps 744 mmHg 70%
    21:00 +15°C° 0 mm 4 mps 744 mmHg 68%
    22:00 +15°C° 0 mm 4 mps 744 mmHg 65%
    23:00 +15°C° 0 mm 4 mps 743 mmHg 64%

    29 October, Monday

    Time Temperature Precipitation Wind Pressure Humidity
    00:00 +15°C° 0 mm 4 mps 743 mmHg 63%
    01:00 +15°C° 0 mm 4 mps 743 mmHg 62%
    02:00 +15°C° 0.1 mm 5 mps 742 mmHg 63%
    03:00 +15°C° 0.1 mm 5 mps 742 mmHg 64%
    04:00 +16°C° 0.1 mm 6 mps 741 mmHg 65%
    05:00 +16°C° 0.2 mm 6 mps 741 mmHg 66%
    06:00 +16°C° 0.2 mm 6 mps 741 mmHg 66%
    07:00 +16°C° 0.2 mm 6 mps 741 mmHg 67%
    08:00 +17°C° 0.5 mm 7 mps 741 mmHg 69%
    09:00 +17°C° 0.5 mm 7 mps 742 mmHg 72%
    10:00 +17°C° 0.5 mm 8 mps 742 mmHg 74%
    11:00 +17°C° 0.4 mm 8 mps 742 mmHg 74%
    12:00 +17°C° 0.4 mm 8 mps 741 mmHg 74%
    13:00 +17°C° 0.4 mm 7 mps 741 mmHg 75%
    14:00 +17°C° 0 mm 6 mps 741 mmHg 74%
    15:00 +17°C° 0 mm 6 mps 741 mmHg 74%
    16:00 +17°C° 0 mm 5 mps 741 mmHg 73%
    17:00 +18°C° 0 mm 4 mps 741 mmHg 74%
    18:00 +17°C° 0 mm 4 mps 741 mmHg 76%
    19:00 +15°C° 0 mm 4 mps 741 mmHg 77%
    20:00 +15°C° 0 mm 4 mps 741 mmHg 77%
    21:00 +15°C° 0 mm 4 mps 742 mmHg 77%
    22:00 +15°C° 0 mm 4 mps 742 mmHg 77%
    23:00 +15°C° 0 mm 5 mps 741 mmHg 76%

    30 October, Tuesday

    Time Temperature Precipitation Wind Pressure Humidity
    00:00 +15°C° 0 mm 5 mps 741 mmHg 75%
    01:00 +15°C° 0 mm 6 mps 741 mmHg 74%
    02:00 +15°C° 0.1 mm 6 mps 741 mmHg 75%
    03:00 +15°C° 0.1 mm 6 mps 741 mmHg 76%
    04:00 +15°C° 0.1 mm 5 mps 741 mmHg 77%
    05:00 +15°C° 0.1 mm 5 mps 741 mmHg 79%
    06:00 +15°C° 0.1 mm 4 mps 741 mmHg 81%
    07:00 +14°C° 0.1 mm 3 mps 741 mmHg 84%
    08:00 +16°C° 0.4 mm 3 mps 741 mmHg 83%
    09:00 +16°C° 0.4 mm 3 mps 742 mmHg 83%
    10:00 +17°C° 0.4 mm 2 mps 742 mmHg 82%
    11:00 +17°C° 0.7 mm 2 mps 742 mmHg 80%
    12:00 +17°C° 0.7 mm 2 mps 741 mmHg 78%
    13:00 +18°C° 0.7 mm 3 mps 741 mmHg 76%
    14:00 +17°C° 1.5 mm 2 mps 741 mmHg 80%
    15:00 +16°C° 1.5 mm 2 mps 741 mmHg 83%
    16:00 +16°C° 1.5 mm 1 mps 740 mmHg 86%
    17:00 +15°C° 1.7 mm 1 mps 740 mmHg 86%
    18:00 +15°C° 1.7 mm 2 mps 740 mmHg 87%
    19:00 +15°C° 1.7 mm 2 mps 741 mmHg 87%
    20:00 +13°C° 0.7 mm 3 mps 741 mmHg 86%
    21:00 +13°C° 0.7 mm 4 mps 742 mmHg 84%
    22:00 +13°C° 0.7 mm 5 mps 742 mmHg 83%
    23:00 +12°C° 0.3 mm 5 mps 743 mmHg 81%
    Show more